This is the latest recevied weather packets stored in our database for station/object KK4XZ. If no packets are shown the sender has not sent any weather packets the latest 10 day(s).
| Time | Temp. | Humidity | Pressure | Rain* | Wind** | Luminosity | Snow |
|---|---|---|---|---|---|---|---|
| 1777560334 | 17.78° C | 95% | 1010.6 hPa | 0.25 mm | - | - | - |
| 1777559729 | 17.22° C | 95% | 1010.2 hPa | 0.25 mm | - | - | - |
| 1777559123 | 17.78° C | 96% | 1010.1 hPa | 0.25 mm | - | - | - |
| 1777558518 | 17.78° C | 96% | 1010.1 hPa | 0 mm | - | - | - |
| 1777557934 | 17.78° C | 96% | 1009.4 hPa | 0.25 mm | - | - | - |
| 1777557329 | 17.78° C | 96% | 1008.9 hPa | 0.76 mm | - | - | - |
| 1777556724 | 17.78° C | 96% | 1008.6 hPa | 2.79 mm | - | - | - |
| 1777556118 | 17.78° C | 96% | 1008.5 hPa | 3.3 mm | - | - | - |
| 1777555534 | 17.78° C | 95% | 1008 hPa | 3.3 mm | - | - | - |
| 1777554929 | 17.78° C | 95% | 1007.9 hPa | 3.3 mm | - | - | - |
| 1777554324 | 18.33° C | 95% | 1009 hPa | 3.05 mm | - | - | - |
| 1777553719 | 18.89° C | 94% | 1009.6 hPa | 2.54 mm | - | - | - |
| 1777553134 | 18.89° C | 93% | 1009 hPa | 0.51 mm | - | - | - |
| 1777552529 | 19.44° C | 92% | 1008.1 hPa | 0 mm | - | - | - |
| 1777551924 | 19.44° C | 92% | 1007.8 hPa | 0 mm | - | - | - |
| 1777551320 | 19.44° C | 94% | 1007.9 hPa | 0 mm | - | - | - |
| 1777550735 | 19.44° C | 95% | 1008 hPa | 0 mm | - | - | - |
| 1777550130 | 18.89° C | 95% | 1008 hPa | 0 mm | - | - | - |
| 1777549525 | 18.89° C | 95% | 1008.3 hPa | 0 mm | - | - | - |
| 1777548920 | 18.89° C | 95% | 1008 hPa | 0 mm | - | - | - |
| 1777548335 | 18.89° C | 95% | 1007.7 hPa | 0 mm | - | - | - |
| 1777547730 | 18.89° C | 95% | 1007.5 hPa | 0 mm | - | - | - |
| 1777547125 | 18.89° C | 95% | 1007.2 hPa | 0 mm | - | - | - |
| 1777546520 | 18.89° C | 95% | 1007.2 hPa | 0 mm | - | - | - |
| 1777545935 | 18.89° C | 95% | 1006.9 hPa | 0 mm | - | - | - |
* Rain latest hour (hover to see other rain measurements)
** Current wind speed in m/s (hover to see current wind gust speed)